Tracking 29892 objects as of 21-Nov-2024
HD Live streaming from Space Station
objects crossing your sky now

SL-8 DEB

Track SL-8 DEB now!
10-day predictions


NORAD ID: 21155
Int'l Code: 1991-009S
Perigee: 1,439.7 km
Apogee: 1,667.0 km
Inclination: 73.9 °
Period: 117.0 minutes
Semi major axis: 7924 km
RCS: 0.0366 m2 (small)
Launch date: February 12, 1991
Source: Commonwealth of Independent States (former USSR) (CIS)
Launch site: PLESETSK MISSILE AND SPACE COMPLEX (PKMTR)

Note: This is SATELLITE DEBRIS
Your satellite tracking list
Your tracking list is empty




NASA's NSSDC Master Catalog

Two Line Element Set (TLE):
1 21155U 91009S   24325.39868358  .00000000  00000-0  12600-3 0  9991
2 21155  73.9200 117.2314 0143444 151.5697 238.7068 12.30720187517211
Source of the keplerian elements: AFSPC